2016-01-15 00:01:53 r, 20.20m,0000000001Hz,0000650679c,0000001.412s,-008.1C,00002191
2016-01-15 00:11:52 r, 20.24m,0000000000Hz,0000671951c,0000001.458s,-008.1C,00002191
2016-01-15 00:21:52 r, 20.25m,0000000001Hz,0000685643c,0000001.488s,-008.4C,00002191
2016-01-15 00:31:52 r, 20.16m,0000000001Hz,0000633433c,0000001.375s,-008.4C,00002191
2016-01-15 00:41:52 r, 20.10m,0000000001Hz,0000600903c,0000001.304s,-008.4C,00002191
2016-01-15 00:51:53 r, 20.25m,0000000001Hz,0000691273c,0000001.500s,-008.4C,00002191
2016-01-15 01:01:52 r, 20.02m,0000000001Hz,0000549131c,0000001.192s,-008.1C,00002191
2016-01-15 01:11:52 r, 19.80m,0000000001Hz,0000451271c,0000000.979s,-008.1C,00002191
2016-01-15 01:21:52 r, 19.82m,0000000001Hz,0000458967c,0000000.996s,-007.8C,00002191
2016-01-15 01:31:52 r, 19.90m,0000000001Hz,0000497408c,0000001.079s,-007.5C,00002191
2016-01-15 01:41:52 r, 20.12m,0000000000Hz,0000603880c,0000001.311s,-007.5C,00002191
2016-01-15 01:51:53 r, 20.36m,0000000001Hz,0000753695c,0000001.636s,-007.1C,00002191
2016-01-15 02:01:52 r, 20.39m,0000000001Hz,0000770076c,0000001.671s,-007.1C,00002191
2016-01-15 02:11:53 r, 20.22m,0000000000Hz,0000664216c,0000001.441s,-007.1C,00002191
2016-01-15 02:21:52 r, 20.35m,0000000000Hz,0000745044c,0000001.617s,-007.5C,00002191
2016-01-15 02:31:52 r, 20.39m,0000000000Hz,0000775562c,0000001.683s,-007.8C,00002191
2016-01-15 02:41:52 r, 20.41m,0000000000Hz,0000789065c,0000001.712s,-007.8C,00002191
2016-01-15 02:51:53 r, 20.41m,0000000000Hz,0000791175c,0000001.717s,-007.8C,00002191
2016-01-15 03:01:53 r, 20.42m,0000000001Hz,0000798709c,0000001.733s,-007.8C,00002191
2016-01-15 03:11:52 r, 20.43m,0000000000Hz,0000799420c,0000001.735s,-008.1C,00002191
2016-01-15 03:21:54 r, 20.39m,0000000001Hz,0000773574c,0000001.679s,-007.8C,00002191
2016-01-15 03:31:52 r, 20.11m,0000000001Hz,0000600099c,0000001.302s,-007.1C,00002191
2016-01-15 03:41:52 r, 19.76m,0000000001Hz,0000434826c,0000000.944s,-006.5C,00002191
2016-01-15 03:51:52 r, 19.66m,0000000001Hz,0000397522c,0000000.863s,-006.2C,00002191
2016-01-15 04:01:52 r, 19.62m,0000000001Hz,0000382992c,0000000.831s,-005.9C,00002191
2016-01-15 04:11:53 r, 20.02m,0000000001Hz,0000553933c,0000001.202s,-005.5C,00002191
2016-01-15 04:21:54 r, 20.10m,0000000001Hz,0000595138c,0000001.292s,-005.5C,00002191
2016-01-15 04:31:53 r, 20.04m,0000000001Hz,0000569282c,0000001.235s,-005.5C,00002191
2016-01-15 04:41:52 r, 20.01m,0000000001Hz,0000550283c,0000001.194s,-005.5C,00002191
2016-01-15 04:51:54 r, 20.04m,0000000001Hz,0000566355c,0000001.229s,-005.2C,00002191
2016-01-15 05:01:52 r, 19.99m,0000000001Hz,0000539603c,0000001.171s,-005.2C,00002191
2016-01-15 05:11:52 r, 20.01m,0000000001Hz,0000552947c,0000001.200s,-005.2C,00002191
2016-01-15 05:21:53 r, 19.96m,0000000001Hz,0000528005c,0000001.146s,-005.2C,00002191
2016-01-15 05:31:52 r, 19.23m,0000000001Hz,0000266974c,0000000.579s,-005.2C,00002191
2016-01-15 05:41:52 r, 18.96m,0000000002Hz,0000209178c,0000000.454s,-004.9C,00002191
2016-01-15 05:51:54 r, 18.85m,0000000002Hz,0000189181c,0000000.411s,-004.9C,00002191
2016-01-15 06:01:53 r, 18.74m,0000000003Hz,0000170359c,0000000.370s,-004.6C,00002191
2016-01-15 06:11:52 r, 18.80m,0000000003Hz,0000179462c,0000000.389s,-004.6C,00002191
2016-01-15 06:21:53 r, 18.82m,0000000002Hz,0000183344c,0000000.398s,-004.2C,00002191
2016-01-15 06:31:52 r, 18.54m,0000000003Hz,0000142248c,0000000.309s,-004.2C,00002191
2016-01-15 06:41:53 r, 18.45m,0000000004Hz,0000130495c,0000000.283s,-004.2C,00002191
2016-01-15 06:51:52 r, 18.44m,0000000003Hz,0000129606c,0000000.281s,-004.2C,00002191
2016-01-15 07:01:52 r, 18.32m,0000000004Hz,0000115533c,0000000.251s,-004.2C,00002191
2016-01-15 07:11:52 r, 17.72m,0000000007Hz,0000067326c,0000000.146s,-004.2C,00002191
2016-01-15 07:21:52 r, 16.67m,0000000018Hz,0000025501c,0000000.055s,-004.2C,00002191
2016-01-15 07:31:52 r, 15.16m,0000000071Hz,0000006356c,0000000.014s,-004.2C,00002191
2016-01-15 07:41:52 r, 13.46m,0000000349Hz,0000000000c,0000000.000s,-004.2C,00002191
2016-01-15 07:51:52 r, 11.58m,0000001970Hz,0000000000c,0000000.000s,-004.2C,00002191
2016-01-15 08:01:52 r, 09.83m,0000009876Hz,0000000000c,0000000.000s,-004.2C,00002191
2016-01-15 08:11:52 r, 08.46m,0000035051Hz,0000000000c,0000000.000s,-003.9C,00002191
2016-01-15 08:21:52 r, 07.41m,0000091395Hz,0000000000c,0000000.000s,-003.9C,00002191
2016-01-15 08:31:52 r, 06.67m,0000180895Hz,0000000000c,0000000.000s,-003.9C,00002191
2016-01-15 08:41:52 r, 06.15m,0000294411Hz,0000000000c,0000000.000s,-003.9C,00002191
2016-01-15 08:51:53 r, 00.00m,0000418800Hz,0000000000c,0000000.000s,-003.6C,00002191
2016-01-15 09:01:52 r, 00.00m,0000546993Hz,0000000000c,0000000.000s,-003.6C,00002191
2016-01-15 09:11:52 r, 00.00m,0000597802Hz,0000000000c,0000000.000s,-003.3C,00002191
2016-01-15 09:21:54 r, 00.00m,0000597780Hz,0000000000c,0000000.000s,-003.3C,00002191
2016-01-15 09:31:52 r, 00.00m,0000597773Hz,0000000000c,0000000.000s,-003.0C,00002191
2016-01-15 09:41:52 r, 00.00m,0000597825Hz,0000000000c,0000000.000s,-002.6C,00002191
2016-01-15 09:51:53 r, 00.00m,0000597717Hz,0000000000c,0000000.000s,-002.0C,00002191
2016-01-15 10:01:52 r, 00.00m,0000597693Hz,0000000000c,0000000.000s,-002.0C,00002191
2016-01-15 10:11:52 r, 00.00m,0000597695Hz,0000000000c,0000000.000s,-002.0C,00002191
2016-01-15 10:21:53 r, 00.00m,0000597655Hz,0000000000c,0000000.000s,-001.7C,00002191
2016-01-15 10:31:52 r, 00.00m,0000597550Hz,0000000000c,0000000.000s, 000.1C,00002191
2016-01-15 10:41:52 r, 00.00m,0000597495Hz,0000000000c,0000000.000s, 001.9C,00002191
2016-01-15 10:51:52 r, 00.00m,0000597368Hz,0000000000c,0000000.000s, 003.2C,00002191
2016-01-15 11:01:52 r, 00.00m,0000597289Hz,0000000000c,0000000.000s, 004.1C,00002191
2016-01-15 11:11:52 r, 00.00m,0000597153Hz,0000000000c,0000000.000s, 004.8C,00002191
2016-01-15 11:21:53 r, 00.00m,0000597174Hz,0000000000c,0000000.000s, 005.1C,00002191
2016-01-15 11:31:52 r, 00.00m,0000597239Hz,0000000000c,0000000.000s, 004.8C,00002191
2016-01-15 11:41:52 r, 00.00m,0000597237Hz,0000000000c,0000000.000s, 004.8C,00002191
2016-01-15 11:51:52 r, 00.00m,0000597324Hz,0000000000c,0000000.000s, 004.5C,00002191
2016-01-15 12:01:53 r, 00.00m,0000597175Hz,0000000000c,0000000.000s, 004.5C,00002191
2016-01-15 12:11:52 r, 00.00m,0000597153Hz,0000000000c,0000000.000s, 004.5C,00002191
2016-01-15 12:21:52 r, 00.00m,0000597215Hz,0000000000c,0000000.000s, 004.1C,00002191
2016-01-15 12:31:54 r, 00.00m,0000597356Hz,0000000000c,0000000.000s, 001.6C,00002191
2016-01-15 12:41:52 r, 00.00m,0000597579Hz,0000000000c,0000000.000s,-000.7C,00002191
2016-01-15 12:51:52 r, 00.00m,0000597606Hz,0000000000c,0000000.000s,-002.0C,00002191
2016-01-15 13:01:53 r, 00.00m,0000597656Hz,0000000000c,0000000.000s,-002.6C,00002191
2016-01-15 13:11:52 r, 00.00m,0000597771Hz,0000000000c,0000000.000s,-003.3C,00002191
2016-01-15 13:21:52 r, 00.00m,0000597862Hz,0000000000c,0000000.000s,-003.6C,00002191
2016-01-15 13:31:52 r, 00.00m,0000597905Hz,0000000000c,0000000.000s,-003.6C,00002191
2016-01-15 13:41:52 r, 00.00m,0000597787Hz,0000000000c,0000000.000s,-003.6C,00002191
2016-01-15 13:51:52 r, 00.00m,0000597737Hz,0000000000c,0000000.000s,-003.9C,00002191
2016-01-15 14:01:52 r, 00.00m,0000597828Hz,0000000000c,0000000.000s,-003.9C,00002191
2016-01-15 14:11:52 r, 00.00m,0000597790Hz,0000000000c,0000000.000s,-003.9C,00002191
2016-01-15 14:21:52 r, 00.00m,0000597805Hz,0000000000c,0000000.000s,-003.9C,00002191
2016-01-15 14:31:52 r, 00.00m,0000597778Hz,0000000000c,0000000.000s,-003.9C,00002191
2016-01-15 14:41:52 r, 00.00m,0000597795Hz,0000000000c,0000000.000s,-004.2C,00002191
2016-01-15 14:51:52 r, 00.00m,0000597838Hz,0000000000c,0000000.000s,-004.2C,00002191
2016-01-15 15:01:52 r, 00.00m,0000597875Hz,0000000000c,0000000.000s,-004.2C,00002191
2016-01-15 15:11:52 r, 00.00m,0000597880Hz,0000000000c,0000000.000s,-004.2C,00002191
2016-01-15 15:21:52 r, 00.00m,0000597780Hz,0000000000c,0000000.000s,-004.6C,00002191
2016-01-15 15:31:52 r, 00.00m,0000597850Hz,0000000000c,0000000.000s,-004.6C,00002191
2016-01-15 15:41:52 r, 00.00m,0000597752Hz,0000000000c,0000000.000s,-004.2C,00002191
2016-01-15 15:51:52 r, 00.00m,0000597717Hz,0000000000c,0000000.000s,-003.6C,00002191
2016-01-15 16:01:52 r, 00.00m,0000597770Hz,0000000000c,0000000.000s,-003.0C,00002191
2016-01-15 16:11:52 r, 00.00m,0000544142Hz,0000000000c,0000000.000s,-003.0C,00002191
2016-01-15 16:21:52 r, 05.84m,0000390464Hz,0000000000c,0000000.000s,-003.6C,00002191
2016-01-15 16:31:53 r, 06.14m,0000298047Hz,0000000000c,0000000.000s,-004.9C,00002191
2016-01-15 16:41:52 r, 06.56m,0000200089Hz,0000000000c,0000000.000s,-005.9C,00002191
2016-01-15 16:51:52 r, 07.18m,0000114096Hz,0000000000c,0000000.000s,-006.5C,00002191
2016-01-15 17:01:53 r, 08.04m,0000051405Hz,0000000000c,0000000.000s,-007.1C,00002191
2016-01-15 17:11:52 r, 09.31m,0000015951Hz,0000000000c,0000000.000s,-007.5C,00002191
2016-01-15 17:21:52 r, 11.07m,0000003149Hz,0000000000c,0000000.000s,-007.8C,00002191
2016-01-15 17:31:53 r, 12.99m,0000000541Hz,0000000000c,0000000.000s,-008.1C,00002191
2016-01-15 17:41:52 r, 14.78m,0000000103Hz,0000004478c,0000000.010s,-008.1C,00002191
2016-01-15 17:51:52 r, 16.41m,0000000023Hz,0000020070c,0000000.044s,-007.8C,00002191
2016-01-15 18:01:52 r, 17.62m,0000000008Hz,0000060468c,0000000.131s,-007.5C,00002191
2016-01-15 18:11:52 r, 18.38m,0000000004Hz,0000121957c,0000000.265s,-007.5C,00002191
2016-01-15 18:21:52 r, 18.71m,0000000003Hz,0000165008c,0000000.358s,-007.8C,00002191
2016-01-15 18:31:52 r, 18.84m,0000000003Hz,0000187227c,0000000.406s,-007.8C,00002191
2016-01-15 18:41:52 r, 18.87m,0000000003Hz,0000192097c,0000000.417s,-008.1C,00002191
2016-01-15 18:51:52 r, 18.89m,0000000003Hz,0000197792c,0000000.429s,-008.4C,00002191
2016-01-15 19:01:52 r, 18.93m,0000000002Hz,0000204511c,0000000.444s,-008.8C,00002191
2016-01-15 19:11:52 r, 18.98m,0000000002Hz,0000215015c,0000000.467s,-009.1C,00002191
2016-01-15 19:21:52 r, 19.02m,0000000002Hz,0000221571c,0000000.481s,-009.1C,00002191
2016-01-15 19:31:52 r, 19.04m,0000000002Hz,0000226567c,0000000.492s,-009.1C,00002191
2016-01-15 19:41:52 r, 19.07m,0000000002Hz,0000232355c,0000000.504s,-009.4C,00002191
2016-01-15 19:51:52 r, 19.10m,0000000002Hz,0000239058c,0000000.519s,-009.4C,00002191
2016-01-15 20:01:53 r, 19.13m,0000000002Hz,0000245891c,0000000.534s,-009.7C,00002191
2016-01-15 20:11:52 r, 19.15m,0000000002Hz,0000251575c,0000000.546s,-009.7C,00002191
2016-01-15 20:21:52 r, 19.11m,0000000002Hz,0000240951c,0000000.523s,-009.7C,00002191
2016-01-15 20:31:53 r, 19.19m,0000000002Hz,0000260145c,0000000.565s,-010.0C,00002191
2016-01-15 20:41:52 r, 19.22m,0000000002Hz,0000267882c,0000000.581s,-010.0C,00002191
2016-01-15 20:51:52 r, 19.26m,0000000002Hz,0000278489c,0000000.604s,-010.4C,00002191
2016-01-15 21:01:54 r, 19.33m,0000000001Hz,0000295731c,0000000.642s,-010.7C,00002191
2016-01-15 21:11:52 r, 19.37m,0000000002Hz,0000309190c,0000000.671s,-010.7C,00002191
2016-01-15 21:21:52 r, 19.42m,0000000001Hz,0000323558c,0000000.702s,-010.7C,00002191
2016-01-15 21:31:52 r, 19.37m,0000000002Hz,0000308138c,0000000.669s,-011.0C,00002191
2016-01-15 21:41:52 r, 19.47m,0000000002Hz,0000335919c,0000000.729s,-011.0C,00002191
2016-01-15 21:51:52 r, 19.53m,0000000001Hz,0000357094c,0000000.775s,-011.0C,00002191
2016-01-15 22:01:54 r, 19.64m,0000000001Hz,0000393759c,0000000.855s,-011.3C,00002191
2016-01-15 22:11:52 r, 19.70m,0000000001Hz,0000413907c,0000000.898s,-011.3C,00002191
2016-01-15 22:21:52 r, 19.76m,0000000001Hz,0000438650c,0000000.952s,-011.7C,00002191
2016-01-15 22:31:52 r, 19.83m,0000000001Hz,0000463608c,0000001.006s,-011.7C,00002191
2016-01-15 22:41:52 r, 19.90m,0000000001Hz,0000497353c,0000001.079s,-011.7C,00002191
2016-01-15 22:51:52 r, 19.96m,0000000001Hz,0000528258c,0000001.146s,-012.0C,00002191
2016-01-15 23:01:54 r, 20.01m,0000000001Hz,0000550233c,0000001.194s,-012.0C,00002191
2016-01-15 23:11:52 r, 20.11m,0000000001Hz,0000604997c,0000001.313s,-012.3C,00002191
2016-01-15 23:21:52 r, 20.17m,0000000001Hz,0000635715c,0000001.380s,-012.6C,00002191
2016-01-15 23:31:52 r, 20.20m,0000000000Hz,0000658525c,0000001.429s,-012.3C,00002191
2016-01-15 23:41:52 r, 20.19m,0000000000Hz,0000652709c,0000001.416s,-012.3C,00002191
2016-01-15 23:51:52 r, 19.74m,0000000001Hz,0000431965c,0000000.937s,-012.3C,00002191
